Location: Newark
(47.4333°N, 19.2500°E)
Time: 23:10:27
(UTC+00:00)

DX 1 - Visible Passes

Search period start: 05 May 2021 00:00
Search period end: 15 May 2021 00:00
Orbit: 619 x 630 km, 98.5° (Epoch: 05 May)

Date Brightness Start Highest point End Pass type
(mag) Time Alt. Az. Time Alt. Az. Time Alt. Az.
05 May ? 18:54:04 10° N 18:58:01 35° WNW 19:01:57 10° SW visible
06 May ? 19:13:02 10° N 19:16:33 25° WNW 19:20:02 10° WSW visible
07 May ? 19:32:12 10° NNW 19:35:01 17° WNW 19:37:51 10° W visible
08 May ? 19:51:46 10° NNW 19:53:27 12° WNW 19:55:08 10° W visible
10 May ? 18:51:10 10° N 18:55:12 39° WNW 18:59:12 10° SW visible
11 May ? 19:10:06 10° N 19:13:43 27° WNW 19:17:20 10° WSW visible
12 May ? 19:29:12 10° NNW 19:32:12 19° WNW 19:35:13 10° WSW visible
13 May ? 19:48:38 10° NNW 19:50:38 13° WNW 19:52:40 10° W visible
